• In India
  • List of Countries
  • For 7 days
  • Water Temperature
  • Satellite Maps
  • Weather Map
  • Weather Widgets
  • user-avatar
    Login

    Hourly Weather Prutz

    Today, 11 December, Monday

    Time Temperature Precipitation Wind Pressure Humidity
    00:00 -7°C° 0.1 mm 4 mps 617 mmHg 84%
    01:00 -5°C° 0.1 mm 4 mps 617 mmHg 84%
    02:00 -5°C° 0.1 mm 4 mps 616 mmHg 84%
    03:00 -4°C° 0.1 mm 4 mps 616 mmHg 85%
    04:00 -4°C° 0.1 mm 4 mps 616 mmHg 85%
    05:00 -3°C° 0.1 mm 4 mps 616 mmHg 85%
    06:00 -3°C° 0.1 mm 4 mps 615 mmHg 86%
    07:00 -2°C° 0.1 mm 4 mps 615 mmHg 86%
    08:00 -1°C° 0.2 mm 4 mps 615 mmHg 86%
    09:00 -1°C° 0.2 mm 5 mps 615 mmHg 85%
    10:00 0°C° 0.2 mm 5 mps 615 mmHg 85%
    11:00 +1°C° 0.2 mm 5 mps 615 mmHg 86%
    12:00 +1°C° 0.2 mm 5 mps 614 mmHg 87%
    13:00 +2°C° 0.2 mm 5 mps 614 mmHg 88%
    14:00 +1°C° 0.2 mm 5 mps 614 mmHg 88%
    15:00 +1°C° 0.2 mm 5 mps 614 mmHg 88%
    16:00 +1°C° 0.2 mm 4 mps 614 mmHg 88%
    17:00 0°C° 0.7 mm 4 mps 614 mmHg 90%
    18:00 0°C° 0.7 mm 4 mps 615 mmHg 91%
    19:00 0°C° 0.7 mm 3 mps 615 mmHg 93%
    20:00 0°C° 1.9 mm 3 mps 615 mmHg 94%
    21:00 0°C° 1.9 mm 3 mps 616 mmHg 95%
    22:00 0°C° 1.9 mm 3 mps 616 mmHg 96%
    23:00 0°C° 2.7 mm 3 mps 616 mmHg 96%

    Tomorrow, 12 December, Tuesday

    Time Temperature Precipitation Wind Pressure Humidity
    00:00 +1°C° 2.7 mm 2 mps 617 mmHg 96%
    01:00 -1°C° 2.7 mm 2 mps 617 mmHg 96%
    02:00 -1°C° 2.1 mm 2 mps 617 mmHg 96%
    03:00 -1°C° 2.1 mm 2 mps 618 mmHg 97%
    04:00 -1°C° 2.1 mm 2 mps 618 mmHg 97%
    05:00 -1°C° 1.4 mm 2 mps 619 mmHg 97%
    06:00 -2°C° 1.4 mm 2 mps 620 mmHg 97%
    07:00 -2°C° 1.4 mm 2 mps 621 mmHg 97%
    08:00 -3°C° 1 mm 2 mps 622 mmHg 97%
    09:00 -3°C° 1 mm 2 mps 623 mmHg 96%
    10:00 -4°C° 1 mm 2 mps 624 mmHg 96%
    11:00 -4°C° 0.7 mm 2 mps 624 mmHg 95%
    12:00 -4°C° 0.7 mm 2 mps 625 mmHg 95%
    13:00 -4°C° 0.7 mm 2 mps 625 mmHg 94%
    14:00 -5°C° 0.4 mm 2 mps 625 mmHg 95%
    15:00 -6°C° 0.4 mm 2 mps 626 mmHg 95%
    16:00 -6°C° 0.4 mm 2 mps 626 mmHg 95%
    17:00 -7°C° 0.3 mm 2 mps 626 mmHg 95%
    18:00 -8°C° 0.3 mm 2 mps 627 mmHg 95%
    19:00 -8°C° 0.3 mm 2 mps 627 mmHg 95%
    20:00 -8°C° 0.2 mm 2 mps 628 mmHg 94%
    21:00 -8°C° 0.2 mm 2 mps 628 mmHg 94%
    22:00 -8°C° 0.2 mm 2 mps 629 mmHg 93%
    23:00 -9°C° 0.1 mm 2 mps 629 mmHg 93%

    Day after tomorrow, 13 December, Wednesday

    Time Temperature Precipitation Wind Pressure Humidity
    00:00 -8°C° 0.1 mm 1 mps 629 mmHg 92%
    01:00 -8°C° 0.1 mm 1 mps 629 mmHg 92%
    02:00 -9°C° 0 mm 1 mps 629 mmHg 91%
    03:00 -10°C° 0 mm 1 mps 629 mmHg 90%
    04:00 -11°C° 0 mm 1 mps 628 mmHg 90%
    05:00 -12°C° 0 mm 1 mps 628 mmHg 88%
    06:00 -12°C° 0 mm 1 mps 628 mmHg 86%
    07:00 -14°C° 0 mm 2 mps 629 mmHg 84%
    08:00 -13°C° 0 mm 2 mps 629 mmHg 81%
    09:00 -10°C° 0 mm 2 mps 630 mmHg 78%
    10:00 -8°C° 0 mm 2 mps 630 mmHg 76%
    11:00 -7°C° 0 mm 2 mps 630 mmHg 75%
    12:00 -5°C° 0 mm 2 mps 630 mmHg 74%
    13:00 -3°C° 0 mm 2 mps 629 mmHg 73%
    14:00 -4°C° 0 mm 2 mps 629 mmHg 76%
    15:00 -5°C° 0 mm 2 mps 628 mmHg 79%
    16:00 -7°C° 0 mm 3 mps 628 mmHg 83%
    17:00 -7°C° 0 mm 3 mps 627 mmHg 82%
    18:00 -7°C° 0 mm 3 mps 627 mmHg 82%
    19:00 -8°C° 0 mm 3 mps 627 mmHg 81%
    20:00 -8°C° 0 mm 3 mps 627 mmHg 79%
    21:00 -8°C° 0 mm 3 mps 627 mmHg 77%
    22:00 -8°C° 0 mm 3 mps 627 mmHg 74%
    23:00 -8°C° 0 mm 3 mps 627 mmHg 72%

    14 December, Thursday

    Time Temperature Precipitation Wind Pressure Humidity
    00:00 -8°C° 0 mm 3 mps 627 mmHg 70%
    01:00 -8°C° 0 mm 3 mps 626 mmHg 68%
    02:00 -7°C° 0.1 mm 3 mps 626 mmHg 70%
    03:00 -7°C° 0.1 mm 3 mps 626 mmHg 73%
    04:00 -7°C° 0.1 mm 3 mps 626 mmHg 76%
    05:00 -6°C° 0.6 mm 3 mps 626 mmHg 81%
    06:00 -6°C° 0.6 mm 3 mps 626 mmHg 85%
    07:00 -5°C° 0.6 mm 3 mps 626 mmHg 89%
    08:00 -5°C° 1.1 mm 3 mps 626 mmHg 90%
    09:00 -4°C° 1.1 mm 3 mps 626 mmHg 90%
    10:00 -4°C° 1.1 mm 3 mps 626 mmHg 91%
    11:00 -2°C° 0.5 mm 3 mps 625 mmHg 90%
    12:00 -1°C° 0.5 mm 3 mps 625 mmHg 90%
    13:00 -1°C° 0.5 mm 3 mps 625 mmHg 90%
    14:00 -1°C° 0 mm 3 mps 624 mmHg 89%
    15:00 -1°C° 0 mm 3 mps 623 mmHg 89%
    16:00 -2°C° 0 mm 3 mps 623 mmHg 88%
    17:00 -4°C° 0 mm 3 mps 622 mmHg 88%
    18:00 -4°C° 0 mm 3 mps 621 mmHg 87%
    19:00 -5°C° 0 mm 4 mps 621 mmHg 87%
    20:00 -5°C° 0 mm 4 mps 621 mmHg 86%
    21:00 -5°C° 0 mm 4 mps 620 mmHg 85%
    22:00 -5°C° 0 mm 4 mps 620 mmHg 85%
    23:00 -4°C° 0.2 mm 4 mps 620 mmHg 86%

    15 December, Friday

    Time Temperature Precipitation Wind Pressure Humidity
    00:00 -4°C° 0.2 mm 4 mps 620 mmHg 88%
    01:00 -4°C° 0.2 mm 4 mps 621 mmHg 90%
    02:00 -5°C° 0.7 mm 3 mps 621 mmHg 91%
    03:00 -4°C° 0.7 mm 2 mps 621 mmHg 93%
    04:00 -4°C° 0.7 mm 2 mps 621 mmHg 95%
    05:00 -4°C° 0.4 mm 2 mps 621 mmHg 95%
    06:00 -3°C° 0.4 mm 1 mps 621 mmHg 96%
    07:00 -3°C° 0.4 mm 1 mps 621 mmHg 96%
    08:00 -3°C° 0.4 mm 1 mps 621 mmHg 95%
    09:00 -3°C° 0.4 mm 1 mps 621 mmHg 94%
    10:00 -3°C° 0.4 mm 1 mps 621 mmHg 94%
    11:00 -2°C° 0.5 mm 1 mps 621 mmHg 93%
    12:00 -2°C° 0.5 mm 1 mps 621 mmHg 93%
    13:00 -2°C° 0.5 mm 1 mps 620 mmHg 93%
    14:00 -2°C° 0.6 mm 1 mps 620 mmHg 93%
    15:00 -3°C° 0.6 mm 1 mps 620 mmHg 94%
    16:00 -3°C° 0.6 mm 1 mps 620 mmHg 94%
    17:00 -4°C° 0.3 mm 1 mps 620 mmHg 94%
    18:00 -7°C° 0.3 mm 2 mps 620 mmHg 94%
    19:00 -7°C° 0.3 mm 2 mps 620 mmHg 94%
    20:00 -7°C° 0.3 mm 2 mps 620 mmHg 94%
    21:00 -7°C° 0.3 mm 2 mps 620 mmHg 93%
    22:00 -8°C° 0.3 mm 2 mps 620 mmHg 93%
    23:00 -8°C° 0.1 mm 2 mps 620 mmHg 92%

    16 December, Saturday

    Time Temperature Precipitation Wind Pressure Humidity
    00:00 -9°C° 0.1 mm 2 mps 620 mmHg 90%
    01:00 -9°C° 0.1 mm 2 mps 620 mmHg 89%
    02:00 -10°C° 0.1 mm 2 mps 620 mmHg 89%
    03:00 -10°C° 0.1 mm 2 mps 620 mmHg 89%
    04:00 -10°C° 0.1 mm 2 mps 620 mmHg 89%
    05:00 -10°C° 0.1 mm 2 mps 620 mmHg 88%
    06:00 -10°C° 0.1 mm 2 mps 620 mmHg 88%
    07:00 -10°C° 0.1 mm 2 mps 621 mmHg 87%
    08:00 -10°C° 0.2 mm 2 mps 622 mmHg 88%
    09:00 -9°C° 0.2 mm 2 mps 622 mmHg 88%
    10:00 -8°C° 0.2 mm 2 mps 623 mmHg 89%
    11:00 -8°C° 0.3 mm 2 mps 623 mmHg 90%
    12:00 -8°C° 0.3 mm 3 mps 624 mmHg 90%
    13:00 -8°C° 0.3 mm 3 mps 624 mmHg 90%
    14:00 -8°C° 0.2 mm 3 mps 624 mmHg 91%
    15:00 -9°C° 0.2 mm 3 mps 625 mmHg 92%
    16:00 -9°C° 0.2 mm 3 mps 625 mmHg 93%
    17:00 -9°C° 0.2 mm 2 mps 626 mmHg 94%
    18:00 -9°C° 0.2 mm 2 mps 626 mmHg 94%
    19:00 -10°C° 0.2 mm 2 mps 627 mmHg 95%
    20:00 -12°C° 0.1 mm 2 mps 627 mmHg 95%
    21:00 -12°C° 0.1 mm 2 mps 627 mmHg 95%
    22:00 -13°C° 0.1 mm 2 mps 627 mmHg 94%
    23:00 -14°C° 0.1 mm 2 mps 627 mmHg 93%
    Show more